Telluride, CO

2:44 AM MDT on October 17, 2017 (GMT -0600)
Telluride Regional

Weather History for KTEX - April, 2012

Change the Weather History Date:

Wednesday, April 4, 2012

  Actual Average Record
Temperature  
Mean Temperature 42 °F -  
Max Temperature 53 °F 41 °F 59 °F (2007)
Min Temperature 30 °F 23 °F 10 °F (2003)
Degree Days  
Heating Degree Days 24    
Moisture  
Dew Point 20 °F    
Average Humidity 51    
Maximum Humidity 80    
Minimum Humidity 18    
Precipitation  
Precipitation 0.00 in - - ()
Sea Level Pressure  
Sea Level Pressure 30.06 in    
Wind  
Wind Speed 5 mph (SSE)    
Max Wind Speed 14 mph    
Max Gust Speed 22 mph    
Visibility 10 miles    
Events      
Averages and records for this station are not official NWS values.
T = Trace of Precipitation, MM = Missing Value Source: NWS Daily Summary

Daily Weather History Graph

Daily Weather History Graph

Search for Another Location

Airport or City:

Trip Planner

Search our weather history database for the weather conditions in past years. The results will help you decide how hot, cold, wet, or windy it might be!

Date:

Astronomy

Apr. 04, 2012 Rise Set
Actual Time 6:51 AM MDT 7:37 PM MDT
Civil Twilight 6:24 AM MDT 8:04 PM MDT
Nautical Twilight 5:53 AM MDT 8:36 PM MDT
Astronomical Twilight 5:21 AM MDT 9:08 PM MDT
Moon 5:36 PM MDT (4/4) 5:13 AM MDT (4/4)
Length of Visible Light 13h 39m
Length of Day
12h 46m
Waxing Gibbous, 94% of the Moon is Illuminated
Apr 4
Waxing Gibbous
Apr 6
Full
Apr 13
Last Quarter
Apr 21
New
Apr 29
First Quarter

Hourly Weather History & Observations

Time (MDT) Temp. Windchill Dew Point Humidity Pressure Visibility Wind Dir Wind Speed Gust Speed Precip Events Conditions
12:15 AM 32.0 °F 25.6 °F 24.8 °F 75% 30.08 in 10.0 mi ESE 6.9 mph - N/A   Clear
1:15 AM 32.0 °F 26.4 °F 23.0 °F 69% 30.08 in 10.0 mi ESE 5.8 mph - N/A   Scattered Clouds
1:35 AM 32.0 °F 27.5 °F 23.0 °F 69% 30.08 in 10.0 mi ESE 4.6 mph - N/A   Clear
1:55 AM 32.0 °F - 23.0 °F 69% 30.08 in 10.0 mi Calm Calm - N/A   Scattered Clouds
2:15 AM 30.2 °F 25.4 °F 23.0 °F 75% 30.08 in 10.0 mi ESE 4.6 mph - N/A   Mostly Cloudy
2:35 AM 30.2 °F 26.7 °F 23.0 °F 75% 30.09 in 10.0 mi SE 3.5 mph - N/A   Mostly Cloudy
2:55 AM 30.2 °F 26.7 °F 23.0 °F 75% 30.08 in 10.0 mi SE 3.5 mph - N/A   Scattered Clouds
3:15 AM 30.2 °F 24.3 °F 23.0 °F 75% 30.08 in 10.0 mi ESE 5.8 mph - N/A   Clear
3:35 AM 30.2 °F - 24.8 °F 80% 30.08 in 10.0 mi Calm Calm - N/A   Clear
3:55 AM 30.2 °F 25.4 °F 24.8 °F 80% 30.07 in 10.0 mi SE 4.6 mph - N/A   Clear
4:15 AM 30.2 °F 25.4 °F 23.0 °F 75% 30.07 in 10.0 mi ESE 4.6 mph - N/A   Clear
4:35 AM 30.2 °F 24.3 °F 23.0 °F 75% 30.07 in 10.0 mi SE 5.8 mph - N/A   Clear
4:55 AM 30.2 °F 24.3 °F 23.0 °F 75% 30.07 in 10.0 mi ESE 5.8 mph - N/A   Clear
5:15 AM 30.2 °F 24.3 °F 23.0 °F 75% 30.07 in 10.0 mi ESE 5.8 mph - N/A   Clear
5:35 AM 30.2 °F 23.4 °F 23.0 °F 75% 30.07 in 10.0 mi ESE 6.9 mph - N/A   Clear
5:55 AM 30.2 °F 24.3 °F 23.0 °F 75% 30.07 in 10.0 mi ESE 5.8 mph - N/A   Clear
6:15 AM 30.2 °F 24.3 °F 24.8 °F 80% 30.06 in 10.0 mi ESE 5.8 mph - N/A   Clear
6:35 AM 30.2 °F 25.4 °F 23.0 °F 75% 30.07 in 10.0 mi ESE 4.6 mph - N/A   Clear
6:55 AM 30.2 °F 24.3 °F 23.0 °F 75% 30.06 in 10.0 mi ESE 5.8 mph - N/A   Clear
7:15 AM 30.2 °F 23.4 °F 23.0 °F 75% 30.06 in 10.0 mi ESE 6.9 mph - N/A   Clear
7:35 AM 30.2 °F 23.4 °F 23.0 °F 75% 30.06 in 10.0 mi ESE 6.9 mph - N/A   Clear
7:55 AM 32.0 °F - 23.0 °F 69% 30.07 in 10.0 mi Calm Calm - N/A   Clear
8:15 AM 32.0 °F - 23.0 °F 69% 30.07 in 10.0 mi Calm Calm - N/A   Clear
8:35 AM 33.8 °F 29.6 °F 23.0 °F 65% 30.08 in 10.0 mi ESE 4.6 mph - N/A   Clear
8:55 AM 33.8 °F - 23.0 °F 65% 30.09 in 10.0 mi Calm Calm - N/A   Clear
9:15 AM 35.6 °F - 24.8 °F 65% 30.09 in 10.0 mi Calm Calm - N/A   Clear
9:35 AM 37.4 °F 34.9 °F 23.0 °F 56% 30.09 in 10.0 mi ESE 3.5 mph - N/A   Clear
9:55 AM 41.0 °F 39.0 °F 21.2 °F 45% 30.09 in 10.0 mi South 3.5 mph - N/A   Clear
10:15 AM 41.0 °F - 19.4 °F 42% 30.09 in 10.0 mi Calm Calm - N/A   Clear
10:35 AM 42.8 °F - 17.6 °F 36% 30.09 in 10.0 mi Calm Calm - N/A   Clear
10:55 AM 44.6 °F 42.2 °F 19.4 °F 37% 30.08 in 10.0 mi SE 4.6 mph - N/A   Clear
11:15 AM 44.6 °F - 17.6 °F 34% 30.09 in 10.0 mi Calm Calm - N/A   Clear
11:35 AM 44.6 °F - 14.0 °F 29% 30.08 in 10.0 mi Calm Calm - N/A   Clear
11:55 AM 46.4 °F 44.3 °F 15.8 °F 29% 30.07 in 10.0 mi WSW 4.6 mph - N/A   Clear
12:15 PM 48.2 °F - 15.8 °F 27% 30.07 in 10.0 mi SSW 5.8 mph - N/A   Clear
12:35 PM 50.0 °F - 14.0 °F 24% 30.07 in 10.0 mi WSW 10.4 mph - N/A   Clear
12:55 PM 50.0 °F - 14.0 °F 24% 30.06 in 10.0 mi West 10.4 mph - N/A   Clear
1:15 PM 50.0 °F - 14.0 °F 24% 30.05 in 10.0 mi WSW 12.7 mph 17.3 mph N/A   Clear
1:35 PM 50.0 °F - 15.8 °F 26% 30.05 in 10.0 mi West 13.8 mph 18.4 mph N/A   Clear
1:55 PM 51.8 °F - 19.4 °F 28% 30.05 in 10.0 mi SSW 5.8 mph - N/A   Clear
2:15 PM 51.8 °F - 17.6 °F 26% 30.05 in 10.0 mi SW 5.8 mph 16.1 mph N/A   Clear
2:35 PM 51.8 °F - 17.6 °F 26% 30.04 in 10.0 mi NW 5.8 mph - N/A   Clear
2:55 PM 51.8 °F - 17.6 °F 26% 30.04 in 10.0 mi NNW 5.8 mph 16.1 mph N/A   Clear
3:15 PM 53.6 °F - 15.8 °F 22% 30.03 in 10.0 mi WSW 9.2 mph 17.3 mph N/A   Clear
4:15 PM 53.6 °F - 17.6 °F 24% 30.02 in 10.0 mi West 8.1 mph 21.9 mph N/A   Clear
4:35 PM 53.6 °F - 17.6 °F 24% 30.02 in 10.0 mi West 8.1 mph - N/A   Clear
4:55 PM 53.6 °F - 17.6 °F 24% 30.01 in 10.0 mi WSW 9.2 mph - N/A   Clear
5:15 PM 53.6 °F - 12.2 °F 19% 30.01 in 10.0 mi SW 9.2 mph - N/A   Clear
5:35 PM 53.6 °F - 10.4 °F 18% 30.01 in 10.0 mi WSW 10.4 mph 16.1 mph N/A   Clear
5:55 PM 51.8 °F - 12.2 °F 21% 30.01 in 10.0 mi West 8.1 mph - N/A   Clear
6:15 PM 51.8 °F - 12.2 °F 21% 30.01 in 10.0 mi West 11.5 mph 16.1 mph N/A   Clear
6:35 PM 51.8 °F - 14.0 °F 22% 30.01 in 10.0 mi SW 8.1 mph - N/A   Clear
6:55 PM 51.8 °F - 12.2 °F 21% 30.02 in 10.0 mi West 8.1 mph - N/A   Clear
7:15 PM 50.0 °F - 14.0 °F 24% 30.02 in 10.0 mi SW 8.1 mph - N/A   Clear
7:35 PM 50.0 °F - 14.0 °F 24% 30.02 in 10.0 mi SW 5.8 mph - N/A   Clear
7:55 PM 48.2 °F - 15.8 °F 27% 30.03 in 10.0 mi West 4.6 mph - N/A   Clear
8:15 PM 46.4 °F - 15.8 °F 29% 30.04 in 10.0 mi Calm Calm - N/A   Clear
8:55 PM 46.4 °F 43.5 °F 15.8 °F 29% 30.06 in 10.0 mi SSE 5.8 mph - N/A   Clear
9:15 PM 44.6 °F 40.7 °F 15.8 °F 31% 30.07 in 10.0 mi ESE 6.9 mph - N/A   Clear
9:35 PM 44.6 °F - 17.6 °F 34% 30.08 in 10.0 mi Calm Calm - N/A   Clear
9:55 PM 44.6 °F - 17.6 °F 34% 30.09 in 10.0 mi Calm Calm - N/A   Clear
10:15 PM 41.0 °F - 17.6 °F 39% 30.09 in 10.0 mi Calm Calm - N/A   Clear
10:35 PM 42.8 °F - 17.6 °F 36% 30.08 in 10.0 mi Calm Calm - N/A   Clear
10:55 PM 42.8 °F 40.1 °F 15.8 °F 34% 30.08 in 10.0 mi ESE 4.6 mph - N/A   Clear
11:15 PM 41.0 °F - 14.0 °F 33% 30.07 in 10.0 mi Calm Calm - N/A   Clear
11:35 PM 39.2 °F - 14.0 °F 36% 30.07 in 10.0 mi Calm Calm - N/A   Clear
11:55 PM 41.0 °F - 12.2 °F 31% 30.07 in 10.0 mi Calm Calm - N/A   Clear